Location: Bieujac
(44.5398°N, 0.1549°W)
Time: 10:23:52
(UTC+00:00)

STARLINK-26 - Pass Details

Date: 17 November 2019
Orbit: 444 x 447 km, 53.0° (Epoch: 12 December)

Event Time Altitude Azimuth Distance (km) Brightness Sun altitude
Exits shadow 04:50:57 21° 174° (S) 1,088 5.2 -22.7°
Drops below altitude 10° 04:55:35 10° 75° (ENE) 1,624 7.0 -21.9°
Enters shadow 05:55:13 -64° 238° (WSW) 12,031 10.3 -11.5°
Maximum altitude 06:30:35 49° 333° (NNW) 613 3.6 -5.5°
